| time (UTC) | temp C | wind direction | speed KPH | gust KPH | rain 1hr cm | rain 24hr cm | rain mn cm | humidity % | barometer mb |
| 20260906230057 | 21 | 74 | 1.6 | 12.9 | 0.00 | 0.20 | 0.00 | 44 | 1027.4 |
| 20260906224549 | 21 | 18 | 4.8 | 17.7 | 0.00 | 0.20 | 0.00 | 42 | 1027.6 |
| 20260906223056 | 22 | 16 | 3.2 | 12.9 | 0.00 | 0.20 | 0.00 | 41 | 1027.6 |
| 20260906221554 | 22 | 5 | 3.2 | 11.3 | 0.00 | 0.20 | 0.00 | 40 | 1027.7 |
| 20260906220045 | 21 | 352 | 3.2 | 9.7 | 0.00 | 0.20 | 0.00 | 41 | 1027.6 |
| 20260906214603 | 21 | 348 | 4.8 | 12.9 | 0.00 | 0.20 | 0.00 | 40 | 1027.9 |
| 20260906213058 | 22 | 98 | 1.6 | 17.7 | 0.00 | 0.20 | 0.00 | 38 | 1028.0 |
| 20260906211549 | 22 | 0 | 3.2 | 6.4 | 0.00 | 0.20 | 0.00 | 36 | 1028.0 |
| 20260906210047 | 22 | 42 | 3.2 | 20.9 | 0.00 | 0.20 | 0.00 | 37 | 1028.1 |
| 20260906204555 | 22 | 40 | 3.2 | 17.7 | 0.00 | 0.20 | 0.00 | 36 | 1028.1 |
| 20260906203050 | 22 | 85 | 3.2 | 16.1 | 0.00 | 0.20 | 0.00 | 35 | 1028.1 |
| 20260906201550 | 23 | 64 | 9.7 | 20.9 | 0.00 | 0.20 | 0.00 | 33 | 1028.2 |
| 20260906200055 | 26 | 329 | 1.6 | 20.9 | 0.00 | 0.20 | 0.00 | 28 | 1028.0 |
| 20260906194550 | 24 | 0 | 4.8 | 16.1 | 0.00 | 0.20 | 0.00 | 23 | 1028.0 |
| 20260906193050 | 24 | 303 | 4.8 | 19.3 | 0.00 | 0.20 | 0.00 | 20 | 1028.1 |
| 20260906191558 | 24 | 360 | 6.4 | 25.7 | 0.00 | 0.20 | 0.00 | 18 | 1028.6 |
| 20260906190054 | 25 | 268 | 3.2 | 14.5 | 0.00 | 0.20 | 0.00 | 17 | 1028.5 |
| 20260906184557 | 25 | 190 | 4.8 | 12.9 | 0.00 | 0.20 | 0.00 | 19 | 1028.9 |
| 20260906183047 | 24 | 339 | 4.8 | 12.9 | 0.00 | 0.20 | 0.00 | 23 | 1029.2 |
| 20260906181553 | 25 | 269 | 3.2 | 11.3 | 0.00 | 0.20 | 0.00 | 23 | 1029.6 |
| 20260906180111 | 23 | 334 | 4.8 | 12.9 | 0.00 | 0.20 | 0.00 | 27 | 1030.0 |
| 20260906174550 | 23 | 247 | 3.2 | 11.3 | 0.00 | 0.20 | 0.00 | 28 | 1030.3 |
| 20260906173102 | 23 | 271 | 0.0 | 12.9 | 0.00 | 0.20 | 0.00 | 29 | 1030.5 |
| 20260906171557 | 22 | 236 | 3.2 | 8.0 | 0.00 | 0.20 | 0.00 | 29 | 1030.7 |
| 20260906170056 | 21 | 259 | 3.2 | 12.9 | 0.00 | 0.20 | 0.00 | 33 | 1030.9 |
| 20260906164547 | 21 | 320 | 1.6 | 3.2 | 0.00 | 0.20 | 0.00 | 34 | 1031.0 |
| 20260906163119 | 20 | 0 | 1.6 | 6.4 | 0.00 | 0.20 | 0.00 | 40 | 1031.0 |
| 20260906161553 | 20 | 360 | 0.0 | 6.4 | 0.00 | 0.20 | 0.00 | 43 | 1031.1 |
| 20260906160053 | 19 | 38 | 3.2 | 9.7 | 0.00 | 0.20 | 0.00 | 45 | 1031.0 |
| 20260906154546 | 17 | 281 | 0.0 | 4.8 | 0.00 | 0.20 | 0.00 | 49 | 1031.2 |
| 20260906153054 | 16 | 69 | 1.6 | 6.4 | 0.00 | 0.20 | 0.00 | 58 | 1030.9 |
| 20260906151553 | 15 | 210 | 0.0 | 6.4 | 0.00 | 0.20 | 0.00 | 63 | 1031.2 |
| 20260906150057 | 15 | 0 | 0.0 | 6.4 | 0.00 | 0.20 | 0.00 | 64 | 1031.2 |
| 20260906144554 | 13 | 292 | 0.0 | 6.4 | 0.00 | 0.20 | 0.00 | 70 | 1031.3 |
| 20260906143053 | 13 | 0 | 0.0 | 12.9 | 0.00 | 0.20 | 0.00 | 70 | 1031.3 |
| 20260906141551 | 12 | 0 | 3.2 | 11.3 | 0.00 | 0.20 | 0.00 | 70 | 1031.4 |
| 20260906134552 | 11 | 234 | 3.2 | 19.3 | 0.00 | 0.20 | 0.00 | 75 | 1031.2 |
| 20260906133115 | 10 | 253 | 3.2 | 11.3 | 0.00 | 0.20 | 0.00 | 80 | 1031.1 |
| 20260906131608 | 9 | 0 | 1.6 | 16.1 | 0.00 | 0.20 | 0.00 | 80 | 1031.3 |
| 20260906130046 | 9 | 273 | 3.2 | 9.7 | 0.00 | 0.20 | 0.00 | 81 | 1031.1 |
| 20260906124550 | 9 | 225 | 3.2 | 9.7 | 0.00 | 0.20 | 0.00 | 80 | 1030.9 |
| 20260906123052 | 9 | 219 | 3.2 | 14.5 | 0.00 | 0.20 | 0.00 | 80 | 1030.9 |
| 20260906121550 | 9 | 240 | 3.2 | 14.5 | 0.00 | 0.20 | 0.00 | 80 | 1030.9 |
| 20260906120054 | 9 | 0 | 1.6 | 14.5 | 0.00 | 0.20 | 0.00 | 81 | 1030.9 |
| 20260906114557 | 9 | 0 | 1.6 | 11.3 | 0.00 | 0.20 | 0.00 | 81 | 1031.1 |
| 20260906113053 | 9 | 226 | 3.2 | 20.9 | 0.00 | 0.20 | 0.00 | 82 | 1031.1 |
| 20260906111545 | 9 | 244 | 1.6 | 12.9 | 0.00 | 0.20 | 0.00 | 83 | 1031.0 |
| 20260906110051 | 9 | 235 | 1.6 | 11.3 | 0.00 | 0.20 | 0.00 | 83 | 1031.2 |
| 20260906104547 | 9 | 228 | 0.0 | 9.7 | 0.00 | 0.20 | 0.00 | 82 | 1031.1 |
| 20260906103044 | 10 | 281 | 0.0 | 12.9 | 0.00 | 0.20 | 0.00 | 80 | 1031.1 |
| 20260906101555 | 10 | 245 | 4.8 | 16.1 | 0.00 | 0.20 | 0.00 | 81 | 1031.1 |
| 20260906100049 | 9 | 322 | 1.6 | 11.3 | 0.00 | 0.20 | 0.00 | 82 | 1031.0 |
| 20260906094546 | 9 | 214 | 1.6 | 11.3 | 0.00 | 0.20 | 0.00 | 82 | 1031.2 |
| 20260906093053 | 9 | 0 | 3.2 | 11.3 | 0.00 | 0.20 | 0.00 | 83 | 1031.2 |
| 20260906091552 | 10 | 190 | 1.6 | 19.3 | 0.00 | 0.20 | 0.00 | 82 | 1031.4 |
| 20260906090056 | 9 | 239 | 3.2 | 9.7 | 0.00 | 0.20 | 0.00 | 84 | 1031.4 |
| 20260906084552 | 9 | 274 | 0.0 | 8.0 | 0.00 | 0.20 | 0.00 | 84 | 1031.4 |
| 20260906083053 | 9 | 215 | 3.2 | 14.5 | 0.00 | 0.20 | 0.00 | 85 | 1031.5 |
| 20260906081552 | 9 | 0 | 3.2 | 11.3 | 0.00 | 0.20 | 0.00 | 85 | 1031.6 |
| 20260906080057 | 10 | 267 | 3.2 | 9.7 | 0.00 | 0.20 | 0.00 | 84 | 1031.6 |
| 20260906074552 | 10 | 219 | 1.6 | 8.0 | 0.00 | 0.20 | 0.00 | 85 | 1031.7 |
| 20260906073044 | 10 | 273 | 1.6 | 8.0 | 0.00 | 0.20 | 0.00 | 85 | 1031.7 |
| 20260906071554 | 9 | 0 | 1.6 | 8.0 | 0.00 | 0.20 | 0.00 | 86 | 1031.9 |
| 20260906070059 | 10 | 243 | 3.2 | 12.9 | 0.00 | 0.20 | 0.00 | 85 | 1031.9 |
| 20260906064553 | 10 | 198 | 1.6 | 11.3 | 0.00 | 0.20 | 0.00 | 86 | 1031.9 |
| 20260906063053 | 10 | 160 | 4.8 | 12.9 | 0.00 | 0.20 | 0.00 | 84 | 1031.9 |
| 20260906061555 | 10 | 190 | 1.6 | 8.0 | 0.00 | 0.20 | 0.00 | 86 | 1032.1 |
| 20260906060105 | 10 | 0 | 1.6 | 9.7 | 0.00 | 0.20 | 0.00 | 86 | 1032.1 |
| 20260906054555 | 10 | 238 | 3.2 | 9.7 | 0.00 | 0.20 | 0.20 | 86 | 1032.2 |
| 20260906053048 | 10 | 263 | 0.0 | 9.7 | 0.00 | 0.20 | 0.20 | 86 | 1032.4 |
| 20260906051558 | 11 | 217 | 1.6 | 9.7 | 0.03 | 0.20 | 0.20 | 86 | 1032.4 |
| 20260906050056 | 11 | 188 | 1.6 | 9.7 | 0.03 | 0.20 | 0.20 | 86 | 1032.6 |
| 20260906044549 | 10 | 186 | 3.2 | 11.3 | 0.03 | 0.20 | 0.20 | 88 | 1032.8 |
| 20260906043057 | 11 | 188 | 4.8 | 14.5 | 0.03 | 0.20 | 0.20 | 86 | 1033.0 |
| 20260906041550 | 11 | 0 | 3.2 | 12.9 | 0.00 | 0.18 | 0.18 | 85 | 1033.1 |
| 20260906040055 | 11 | 190 | 3.2 | 11.3 | 0.00 | 0.18 | 0.18 | 86 | 1033.1 |
| 20260906034548 | 10 | 0 | 1.6 | 6.4 | 0.08 | 0.18 | 0.18 | 89 | 1032.9 |
| 20260906033045 | 10 | 0 | 0.0 | 8.0 | 0.08 | 0.18 | 0.18 | 89 | 1033.2 |
| 20260906031552 | 11 | 171 | 0.0 | 11.3 | 0.08 | 0.18 | 0.18 | 88 | 1033.0 |
| 20260906030055 | 11 | 217 | 4.8 | 19.3 | 0.08 | 0.18 | 0.18 | 81 | 1033.2 |
| 20260906024547 | 13 | 279 | 6.4 | 16.1 | 0.00 | 0.10 | 0.10 | 69 | 1032.3 |
| 20260906023050 | 11 | 183 | 1.6 | 3.2 | 0.00 | 0.10 | 0.10 | 80 | 1031.2 |
| 20260906021557 | 11 | 140 | 1.6 | 4.8 | 0.00 | 0.10 | 0.10 | 86 | 1031.2 |
| 20260906020047 | 10 | 132 | 3.2 | 6.4 | 0.00 | 0.10 | 0.10 | 88 | 1030.7 |
| 20260906014603 | 10 | 0 | 1.6 | 4.8 | 0.00 | 0.10 | 0.10 | 89 | 1030.7 |
| 20260906013051 | 10 | 138 | 1.6 | 4.8 | 0.00 | 0.10 | 0.10 | 89 | 1030.5 |
| 20260906011603 | 11 | 138 | 1.6 | 4.8 | 0.10 | 0.10 | 0.10 | 89 | 1030.8 |
| 20260906010047 | 11 | 138 | 1.6 | 4.8 | 0.10 | 0.10 | 0.10 | 89 | 1030.7 |
| 20260906004544 | 12 | 137 | 1.6 | 6.4 | 0.10 | 0.10 | 0.10 | 87 | 1030.7 |
| 20260906003055 | 13 | 128 | 3.2 | 9.7 | 0.10 | 0.10 | 0.10 | 84 | 1030.7 |
| 20260906001600 | 19 | 0 | 0.0 | 4.8 | 0.00 | 0.00 | 0.00 | 40 | 1030.4 |
| 20260906000046 | 19 | 158 | 0.0 | 9.7 | 0.00 | 0.00 | 0.00 | 37 | 1030.2 |
| 20260905234555 | 20 | 0 | 0.0 | 6.4 | 0.00 | 0.00 | 0.00 | 36 | 1030.1 |
| 20260905233106 | 20 | 0 | 0.0 | 14.5 | 0.00 | 0.00 | 0.00 | 35 | 1030.0 |
| 20260905231557 | 20 | 0 | 0.0 | 6.4 | 0.00 | 0.00 | 0.00 | 35 | 1029.9 |